Volver al catálogo

SL-14 R/B

ActivoPO
NORAD 21656·ROCKET BODY·🇷🇺 Russia

Lanzado Aug 15, 1991 desde Plesetsk Cosmodrome

Loading…

Próximos Pases (próximas 24 horas)

TLE

ActualizadoSource: Space-Track

Época: Sep 14, 2026, 10:52 UTC

1 21656U 91056B   26257.45302811 -.00000007  00000-0 -48852-4 0  9997
2 21656  82.5440  64.3414 0024261 203.0377 184.8727 13.20284431687190

Sigue SL-14 R/B en tiempo real con AllMySat

Download on the App Store